Location: Newark
(45.5000°N, 11.4167°E)
Time: 22:39:30
(UTC+00:00)

Vanguard 2 - Pass Details

Date: 26 August 2019
Orbit: 554 x 2937 km, 32.9° (Epoch: 22 September)

Event Time Altitude Azimuth Distance (km) Brightness Sun altitude
Rises 10:35:13 0° 215° (SW) 2,958 10.8 53.8°
Reaches altitude 10° 10:38:01 10° 194° (SSW) 2,252 10.6 54.0°
Maximum altitude 10:41:24 17° 153° (SSE) 2,080 10.7 54.1°
Drops below altitude 10° 10:45:42 10° 114° (ESE) 2,991 11.0 54.3°
Sets 10:50:15 0° 97° (E) 4,446 11.6 54.5°
